Guaymas, México

5:03 AM MST en Mayo 20, 2018 (GMT -0700)
Gen Jose Ma Yanez International

Tiempo Historia de MMGM - Mayo, 2018

Change the Weather History Date:

Jueves, Mayo 17, 2018

  Actual Average Record
Temperature  
Temperatura media 88 ° F -  
Temperatura máxima 98 ° F 92 ° F 100 ° F (2014)
Temperatura mínima 77 ° F 73 ° F 62 ° F (2017)
Cooling Degree Days 22    
Growing Degree Days 38 (Base 50)    
Moisture  
Punto de rocío 45 ° F    
Average Humidity 21    
Maximum Humidity 43    
Minimum Humidity 4    
Precipitación  
Precipitación 0.00 pul - - ()
Presión al nivel del mar  
Presión al nivel del mar 29.77 pul    
Viento  
Velocidad del viento 6 mph ()    
Velocidad máxima del viento 17 mph    
Max Gust Speed -    
Visibilidad 10.0 Millas    
Eventos      
Averages and records for this station are not official NWS values.
T = Trace of Precipitation, MM = Missing Value Source: Averaged Metar Reports

Daily Weather History Graph

Daily Weather History Graph

Search for Another Location

Airport or City:

Astronomía

May. 17, 2018 Salida Puesta
Hora real 5:32 AM MST 7:07 PM MST
Crepúsculo civil 5:07 AM MST 7:33 PM MST
Crepúsculo náutico 4:36 AM MST 8:04 PM MST
Crepúsculo astronómico 4:04 AM MST 8:36 PM MST
Luna 7:40 AM MST (5/17) 9:43 PM MST (5/17)
Horas de luz 14h 25m
Horas de luz
13h 34m
Creciente, 7% of the Moon is Illuminated
May 17
Creciente
May 21
Cuarto creciente
May 29
Luna llena
Jun 6
Cuarto menguante
Jun 13
Nueva

Hourly Weather History & Observations

Hora (MST) Temp. Índice de calor Punto de rocío Humedad Presión Visibilidad Wind Dir Velocidad del viento Velocidad de ráfagas Precip Eventos Condiciones
2:00 AM 79 ° F - 44 ° F 18% 29.78 pul - ONO 6.7 mph - -  
5:00 AM 77 ° F - 40 ° F 16% 29.80 pul - NO 6.7 mph - -  
6:48 AM 80.6 ° F - 46.4 ° F 30% 29.77 pul 10.0 mi Sin viento Sin viento - N/A   Despejado
7:42 AM 84.2 ° F - 48.2 ° F 29% 29.78 pul 10.0 mi Sin viento Sin viento - N/A   Despejado
8:00 AM 87 ° F - 39 ° F 10% 29.85 pul - Oeste 2.2 mph - -  
8:44 AM 89.6 ° F 87.3 ° F 53.6 ° F 29% 29.79 pul 10.0 mi Sin viento Sin viento - N/A   Despejado
9:51 AM 91.4 ° F 89.1 ° F 53.6 ° F 28% 29.80 pul 10.0 mi SSO 8.1 mph - N/A   Despejado
10:46 AM 86.0 ° F 86.1 ° F 60.8 ° F 43% 29.80 pul 10.0 mi SSO 17.3 mph - N/A   Parcialmente nublado
11:00 AM 96 ° F - 40 ° F 8% 29.86 pul - SO 4.5 mph - -  
11:42 AM 87.8 ° F 88.5 ° F 62.6 ° F 43% 29.79 pul 10.0 mi SSO 17.3 mph - N/A   Parcialmente nublado
12:43 PM 89.6 ° F 90.1 ° F 62.6 ° F 40% 29.78 pul 10.0 mi SSO 11.5 mph - N/A   Despejado
1:40 PM 91.4 ° F 91.4 ° F 60.8 ° F 36% 29.77 pul 10.0 mi SSO 11.5 mph - N/A   Despejado
2:00 PM 97 ° F - 35 ° F 5% 29.82 pul - SO 13.4 mph - -  
3:33 PM 93.2 ° F 91.3 ° F 55.4 ° F 28% 29.72 pul 10.0 mi SSO 11.5 mph - N/A   Despejado
3:43 PM 93.2 ° F 91.9 ° F 57.2 ° F 30% 29.72 pul 10.0 mi SSO 11.5 mph - N/A   Despejado
4:43 PM 95.0 ° F - 48.2 ° F 20% 29.70 pul 10.0 mi SSO 11.5 mph - N/A   Despejado
5:00 PM 98 ° F - 28 ° F 4% 29.75 pul - SO 11.2 mph - -  
5:41 PM 93.2 ° F - 32.0 ° F 11% 29.69 pul 10.0 mi SSO 11.5 mph - N/A   Despejado
6:44 PM 93.2 ° F - 33.8 ° F 12% 29.70 pul 10.0 mi SSO 5.8 mph - N/A   Despejado
8:00 PM 87 ° F - 24 ° F 4% 29.77 pul - ONO 4.5 mph - -  
11:00 PM 79 ° F - 27 ° F 7% 29.79 pul - NO 4.5 mph - -